Flag for Germany Weather past 2 weeks in Celle, Lower Saxony, Germany

Now
43 °F

Passing clouds.


Feels Like: 41 °F
Forecast: 45 / 62 °F
Wind: 3 mph from Southwest

Location: Celle Airport

Current Time: May 27, 2015 at 6:24:33 AM

Latest Report: May 27, 2015 at 5:20 AM


Visibility: N/A

Pressure: 30.18 "Hg

Humidity: 93%

Dew point: 41 °F

Location of CelleLocation

Historic Weather in Celle — Graph

°F

Celle temperature yesterday

Maximum temperature yesterday: 57 °F (at 3:20 PM)
Minimum temperature yesterday: 46 °F (at 12:20 AM)
Average temperature yesterday: 51 °F

Past Weeks' High & Low Weather Summary

 TemperatureHumidityPressure
High79 °F (May 12, 1:20 PM)100% (May 24, 5:20 AM)30.33 "Hg (May 24, 5:20 AM)
Low36 °F (May 15, 5:20 AM)32% (May 20, 4:20 PM)29.59 "Hg (May 18, 9:20 PM)
Average53 °F68%30.03 "Hg
* Reported May 12 4:20 AM — May 27 4:20 AM, Celle, Weather by CustomWeather, © 2015

Note: Actual official high and low records may vary slightly from our data, if they occured in-between our weather recording intervals... More about our weather records

Advertising

Celle weather history for previous 24 hours

 ConditionsComfort  
Time TempWeatherWind HumidityBarometerVisibility
4:20 AM
Wed, May 27
43 °FPassing clouds.6 mph93%30.18 "HgN/A
3:20 AM45 °FPassing clouds.6 mph87%30.18 "HgN/A
2:20 AM45 °FPassing clouds.6 mph87%30.18 "HgN/A
1:20 AM45 °FPassing clouds.5 mph81%30.18 "HgN/A
12:20 AM45 °FPassing clouds.5 mph81%30.15 "HgN/A
11:20 PM
Tue, May 26
46 °FPassing clouds.5 mph76%30.15 "HgN/A
10:20 PM48 °FPassing clouds.5 mph76%30.15 "HgN/A
9:20 PM50 °FPassing clouds.3 mph71%30.12 "HgN/A
8:20 PM54 °FScattered clouds.9 mph63%30.12 "HgN/A
7:20 PM55 °FPartly sunny.10 mph59%30.09 "HgN/A
6:20 PM55 °FBroken clouds.8 mph59%30.09 "HgN/A
5:20 PM55 °FBroken clouds.8 mph72%30.07 "HgN/A
4:20 PM55 °FSprinkles. Broken clouds.10 mph55%30.07 "HgN/A
3:20 PM57 °FBroken clouds.8 mph59%30.07 "HgN/A
2:20 PM54 °FBroken clouds.13 mph67%30.07 "HgN/A
1:20 PM55 °FBroken clouds.10 mph55%30.04 "HgN/A
12:20 PM55 °FBroken clouds.9 mph51%30.04 "HgN/A
11:20 AM54 °FBroken clouds.8 mph54%30.04 "HgN/A
10:20 AM52 °FBroken clouds.10 mph58%30.04 "HgN/A
9:20 AM50 °FScattered clouds.7 mph76%30.04 "HgN/A
8:20 AM50 °FScattered clouds.8 mph82%30.04 "HgN/A
7:20 AM48 °FLight rain. Partly sunny.7 mph87%30.01 "HgN/A
6:20 AM46 °FPartly sunny.3 mph87%30.01 "HgN/A
Weather by CustomWeather, © 2015

See weather overviewHow to use our weather pages